SCATSAT 1

Last updated on Sun Apr 12 2026 00:02:35 GMT+0000 (Coordinated Universal Time)

1 41790U 16059H 26101.45919809 .00001123 00000+0 15416-3 0 9993 2 41790 98.1244 164.5289 0056121 103.0410 257.7074 14.79379331 91728
UTC large
Height (km)
Speed (km/s)
/
Latitude / Longitude
Inclination (degrees)
Orbital Period (minutes)
Azimuth
Elevation
Range (km)
Doppler Factor

Next 0 passes for location: London (51.5072 / 0.1276)

Sorry there are no passes over London.